Location: Newark
(51.6497°N, 3.9164°E)
Time: 02:27:47
(UTC+00:00)

Envisat - Visible Passes

Search period start: 22 September 2020 00:00
Search period end: 02 October 2020 00:00
Orbit: 764 x 766 km, 98.1° (Epoch: 21 September)

Date Brightness Start Highest point End Pass type
(mag) Time Alt. Az. Time Alt. Az. Time Alt. Az.
22 Sep 6.2 18:21:29 10° SW 18:24:40 17° W 18:27:52 10° NW visible
23 Sep 6.0 04:44:02 10° NE 04:47:45 20° E 04:51:27 10° SE visible
25 Sep 6.1 18:09:27 10° SW 18:13:10 20° W 18:16:54 10° NW visible
26 Sep 6.2 04:33:03 10° NE 04:36:14 16° E 04:39:24 10° SE visible
27 Sep 6.5 18:36:54 10° WSW 18:38:58 12° W 18:41:04 10° WNW visible
28 Sep 5.6 04:57:44 10° NE 05:02:00 26° E 05:06:13 10° SSE visible
28 Sep 5.8 17:57:34 10° SW 18:01:40 24° W 18:05:49 10° NW visible
29 Sep 6.4 04:22:16 10° NE 04:24:43 13° E 04:27:08 10° ESE visible
30 Sep 6.3 18:24:30 10° WSW 18:27:26 15° W 18:30:24 10° NW visible
01 Oct 5.9 04:46:38 10° NE 04:50:31 21° E 04:54:22 10° SE visible
01 Oct 5.4 17:45:47 10° SSW 17:50:12 29° W 17:54:39 10° NNW visible
